Flag for Colombia Weather past 2 weeks in Medellin, Colombia

Now
61 °F

Fog.


Feels Like: 61 °F
Forecast: 66 / 84 °F
Wind: No wind

Location: Rionegro / J. M. Cordova

Current Time: Mar 27, 2015 at 8:01:37 AM

Latest Report: Mar 27, 2015 at 7:00 AM


Visibility: 2 mi

Pressure: 30.32 "Hg

Humidity: 88%

Dew point: 57 °F

Location of MedellinLocation

Historic Weather in Medellin — Graph

°F

Medellin temperature yesterday

Maximum temperature yesterday: 73 °F (at 3:00 PM)
Minimum temperature yesterday: 55 °F (at 4:00 AM)
Average temperature yesterday: 63 °F

Past Weeks' High & Low Weather Summary

 TemperatureHumidityPressure
High75 °F (Mar 12, 2:00 PM)100% (Mar 18, 3:00 AM)30.43 "Hg (Mar 18, 3:00 AM)
Low52 °F (Mar 25, 7:00 AM)41% (Mar 16, 2:00 PM)30.15 "Hg (Mar 13, 4:00 PM)
Average62 °F84%30.29 "Hg
* Reported Mar 12 7:00 AM — Mar 27 7:00 AM, Medellin, Weather by CustomWeather, © 2015

Note: Actual official high and low records may vary slightly from our data, if they occured in-between our weather recording intervals... More about our weather records

Advertising

Medellin weather history for previous 24 hours

 ConditionsComfort  
Time TempWeatherWind HumidityBarometerVisibility
7:00 AM
Fri, Mar 27
61 °FFog.No wind88%30.32 "Hg2 mi
6:00 AM59 °FFog.No wind94%30.31 "Hg2 mi
5:00 AM59 °FFog.No wind94%30.29 "Hg2 mi
4:00 AM59 °FFog.No wind94%30.29 "Hg2 mi
3:00 AM59 °FFog.No wind94%30.28 "Hg2 mi
2:00 AM59 °FFog.No wind94%30.30 "Hg2 mi
1:00 AM59 °FDrizzle. Fog.No wind94%30.33 "Hg2 mi
12:00 AM59 °FFog.No wind94%30.35 "Hg2 mi
11:00 PM
Thu, Mar 26
61 °FFog.No wind94%30.34 "Hg2 mi
10:00 PM61 °FFog.No wind94%30.32 "Hg2 mi
9:00 PM63 °FFog.No wind88%30.30 "Hg2 mi
8:00 PM63 °FPassing clouds.No wind94%30.28 "Hg5 mi
7:00 PM64 °FPassing clouds.7 mph88%30.27 "HgN/A
6:00 PM68 °FScattered clouds.9 mph69%30.26 "HgN/A
5:00 PM72 °FScattered clouds.9 mph57%30.24 "HgN/A
4:00 PM73 °FPassing clouds.9 mph47%30.23 "HgN/A
3:00 PM73 °FScattered clouds.9 mph50%30.25 "HgN/A
2:00 PM72 °FScattered clouds.12 mph53%30.29 "HgN/A
1:00 PM70 °FScattered clouds.9 mph57%30.30 "HgN/A
12:00 PM70 °FScattered clouds.12 mph60%30.33 "HgN/A
11:00 AM66 °FScattered clouds.9 mph68%30.35 "HgN/A
10:00 AM64 °FScattered clouds.5 mph73%30.37 "Hg5 mi
9:00 AM61 °FPartly sunny.5 mph88%30.36 "Hg4 mi
8:00 AM57 °FFog.5 mph100%30.35 "Hg2 mi
Weather by CustomWeather, © 2015

See weather overviewHow to use our weather pages